Regional Weather Roundup
Issued by NWS Jackson, KY

Home | Current Version | Previous Version | Graphics & Text | Print | Product List | Glossary On
Versions: 1 2 3 4 5 6 7 8 9 10 11 12 13 14 15 16 17 18 19 20 21 22 23 24 25 26 27 28 29 30 31 32 33 34 35 36 37 38 39 40 41 42 43 44 45 46 47 48 49 50
204
ASUS43 KJKL 260810
RWRJKL

EAST KENTUCKY HOURLY WEATHER ROUNDUP
NATIONAL WEATHER SERVICE JACKSON KY
400 AM EDT WED JUL 26 2017

NOTE: "FAIR" INDICATES FEW OR NO CLOUDS BELOW 12,000 FEET WITH
NO SIGNIFICANT WEATHER AND/OR OBSTRUCTIONS TO VISIBILITY.

* THESE REPORTS ARE NOT UNDER NWS QUALITY CONTROL AND MAY NOT
  REPORT WEATHER SUCH AS PRECIPITATION AND FOG.

KYZ079-080-083-085-087-088-110-112-115-119-120-260900
...EASTERN KENTUCKY...

CITY           SKY/WX    TMP DP  RH WIND       PRES   REMARKS
JACKSON        CLEAR     63  60  90 CALM      30.15F
LONDON         CLEAR     66  62  87 N3        30.14F
SOMERSET*      CLEAR     66  64  94 CALM      30.14S
MONTICELLO*    CLEAR     65  65 100 VRB7      30.14F
WILLIAMSBURG*    N/A     64  64 100 CALM      30.13F VSB<1/4
MIDDLESBORO*   MOCLDY    65  65 100 CALM      30.15S FOG
PIKE CO APT*     N/A     63  63 100 CALM      30.16S
BIG SANDY APT* SUNNY     60  60 100 CALM      30.15F FOG
MOREHEAD APT*  SUNNY     63  57  82 CALM      30.17F
ASHLAND*       CLEAR     59  59 100 CALM      30.14F
$$

KYZ035-036-041-042-044-050-067-078-099-260900
...CENTRAL KENTUCKY...

CITY           SKY/WX    TMP DP  RH WIND       PRES   REMARKS
MT STERLING*   CLEAR     63  59  88 E3        30.17S
FLEMING/MASON* CLEAR     60  58  94 CALM      30.17F
DANVILLE*      CLEAR     63  61  94 CALM      30.15S
LEXINGTON      CLEAR     66  60  81 E7        30.15S
FRANKFORT      CLEAR     65  60  84 NE6       30.14S
LOUISVILLE     CLEAR     71  62  73 E7        30.12R
LEBANON*         N/A     66  63  88 CALM      30.13S
GLASGOW*       CLEAR     70  66  85 CALM      30.11S
BOWLING GREEN  CLEAR     74  69  85 CALM      30.10S
$$

KYZ091>093-OHZ055-061-077-WVZ005-015-034-035-042-260900
...SOUTHERN OHIO/WEST VIRGINIA...

CITY           SKY/WX    TMP DP  RH WIND       PRES   REMARKS
COVINGTON      CLEAR     64  61  90 SE8       30.15F
COLUMBUS       CLEAR     62  61  96 CALM      30.17F
DAYTON         CLEAR     62  58  86 SE3       30.18S
WILMINGTON     CLEAR     58  58 100 E3        30.17F
HUNTINGTON     CLEAR     62  58  86 CALM      30.14F
CHARLESTON     CLEAR     58  57  97 NE3       30.15F
PINEVILLE*     CLEAR     61  60  94 MISG      30.23S
BECKLEY        PTCLDY    63  56  78 SE6       30.21F
BLUEFIELD      PTCLDY    63  57  81 VRB6      30.24F
LOGAN CO APT*    N/A     63  61  94 CALM      30.16S
$$

VAZ002-007-008-TNZ017-027-036-066-071-260900
...SOUTHWEST VIRGINIA/EAST TENNESSEE...

CITY           SKY/WX    TMP DP  RH WIND       PRES   REMARKS
WISE*          MOCLDY    64  64 100 CALM      30.22F
JONESVILLE*      N/A     64  64 100 CALM      30.17S FOG
ABINGDON*      CLOUDY    71  63  75 E7        30.18S
BRISTOL        CLEAR     67  64  90 CALM      30.15S
MORRISTOWN*    PTSUNNY   72  68  88 CALM      30.13S
KNOXVILLE      CLEAR     72  67  84 CALM      30.11S
LAFOLLETTE*      N/A     64  64 100 CALM      30.16S FOG
OAK RIDGE      CLEAR     69  66  90 CALM      30.13R
CROSSVILLE     CLEAR     67  66  97 CALM      30.16F
NASHVILLE      CLEAR     78  74  87 CALM      30.09F
$$

...KEY TO REMARKS...
VSB - VISIBILITY IN MILES
WCI - WIND CHILL INDEX
HX  - HEAT INDEX

$$




USA.gov is the U.S. government's official web portal to all federal, state and local government web resources and services.